IRNSS-1G (41469 NORAD) Tracking and Keplerian Element Data

This shows tracking and keplerian element data for the satellite.

Feedback or suggestion? Click here.




ElementValue
Catalog41469
NameIRNSS-1G
Epoch Orbit1444
Epoch Day91.70914118
Epoch Year2020
RAAN226.584
Inclination2.294
Eccentricity0.0005103
Argument of Perigee211.1144
Mean Anonmoly136.679
Mean Motion1.00269379
Decay Rate-3.39E-06
L11 41469U 16027A 20091.70914118 -.00000339 00000-0 00000-0 0 9999
L22 41469 2.2940 226.5840 0005103 211.1144 136.6790 1.00269379 14445

Live tracking and technical data element details for IRNSS-1G (NORAD 41469). IRNSS-1G can be tracked NOW for your location showing map with azimuth and elevation plus other details from your city location.

Track the satellite on the map from your city or location and see movement details for azimuth, elevation, latitude, longitude, range, height, and movement on the map or in text.







IsCatalogInMostPopularTable: catalog: 41469, numindb: 364
Update: records affected: 1



GetName: 41469 IRNSS-1G

Hit Count: updated at: Thu, 02 Apr 2020 03:13:39 GMT